Weather in Radushne

Ukraine / Dnipropetrovsk Region     47°49′27″N   33°29′35″E
temp.,
°C
wind,
m/s
gust,
m/s
humid.,
%
clouds,
%
prec.,
mm/h
press.,
hPa
HPBL,
m
20 september, mon
mon2000:00+15nw697485 0.1 1009435
03:00+12wnw596680 0.1 1010428
06:00+11wnw5964100 0.0 1011571
09:00+11w6964100 0.0 1012749
12:00+15w710456 0.0 10121356
15:00+16w894464 0.0 10121657
18:00+15wnw674785 0.0 10121569
21:00+13nw4760100 0.0 1014529
21 september, tue
tue2100:00+11wnw3573100 0.0 1015217
03:00+10wnw3578100 0.0 1015127
06:00+10w467893 0.0 1015313
09:00+11wnw576778 0.0 1015858
12:00+11wnw6762100 0.0 10161385
15:00+10wnw6760100 0.1 10161106
18:00+11wnw6852100 0.0 10161335
21:00+8wnw6871100 0.0 1017919
22 september, wed
wed2200:00+8wnw5774100 0.0 1017977
03:00+8wnw5775100 0.1 10171070
06:00+7wnw5778100 0.1 1016924
09:00+8wnw5677100 0.1 1016921
12:00+9wnw5671100 0.1 10161208
15:00+11wnw4660100 0.1 10161400
18:00+9wnw4567100 0.1 1016750
21:00+9wnw2467100 0.1 1016351
23 september, thu
thu2300:00+8nw2369100 0.0 1015213
03:00+8w2372100 0.0 1015378
06:00+8nw2371100 0.1 1014501
09:00+8nw226799 0.1 1015843
12:00+10nw3264100 0.2 10141137
15:00+10wnw345789 0.3 10141084
18:00+9nw4558100 0.0 1014816
21:00+9nnw4567100 0.1 1015519
24 september, fri
fri2400:00+8nw3571100 0.1 1015389
03:00+8wnw2474100 0.1 1015224
06:00+6w33845 0.0 101548
09:00+9wsw466421 0.0 1014436
12:00+14sw7843100 0.0 10131228
15:00+16sw81043100 0.0 10111343
18:00+14sw81358100 0.2 10111263
21:00+13wsw71571100 0.6 1011783